Theta_e
337 349 363 364 363 363 363 363 361 361 360 359 359 358 358 357 358 357 356 355 355 353 351 347 344 342 340 338 337 336 335 334 335 336 343 349 352 353 353 352 352 349 352
341 352 363 363 363 363 363 362 361 360 360 359 359 358 357 357 356 355 354 353 353 349 347 344 342 339 337 335 333 332 331 330 329 329 330 334 346 350 351 352 352 349 351
339 353 360 363 363 363 362 361 360 359 359 359 358 358 357 356 354 354 353 352 349 347 344 342 339 338 336 334 333 333 333 334 334 333 332 322 327 347 350 350 352 350 350
341 352 357 362 363 362 362 360 359 360 360 359 358 357 357 356 354 352 351 349 346 344 342 340 338 337 336 336 335 335 335 336 337 338 332 331 326 347 349 350 352 350 348
342 350 353 362 362 362 361 360 359 359 359 359 358 357 357 356 354 352 351 349 345 343 341 339 337 337 338 338 337 336 336 339 343 342 337 334 330 340 348 349 350 350 349
340 346 356 360 361 361 361 360 359 359 359 359 359 358 357 356 354 352 351 349 347 343 341 339 340 340 340 339 338 338 340 341 342 337 336 337 327 345 348 349 350 350 350
339 341 353 359 360 361 361 360 359 359 358 358 359 358 357 356 355 353 351 348 347 346 342 341 342 344 343 341 340 341 341 342 340 338 336 333 333 347 348 349 350 350 350
336 339 348 357 359 359 360 359 358 358 358 358 357 357 357 356 354 352 350 348 348 347 346 344 345 345 345 344 342 343 343 344 342 337 334 331 335 344 347 349 348 348 350
334 339 344 350 356 359 359 358 358 357 357 357 356 356 356 356 354 352 350 349 348 348 347 346 347 346 345 344 344 344 344 345 339 334 335 331 338 344 344 346 343 345 347
331 337 340 346 351 352 354 358 358 357 357 356 356 356 356 355 354 352 349 348 348 348 347 347 348 347 346 346 346 345 344 345 338 335 334 332 340 343 345 344 342 346 348
335 334 338 342 344 346 347 353 357 358 357 356 356 356 353 349 348 346 347 346 348 348 347 348 348 348 346 345 344 344 345 337 337 335 333 337 342 345 346 346 347 347 348
333 335 338 340 342 342 345 344 346 350 351 351 350 350 347 342 340 342 345 346 348 347 347 347 348 348 345 337 338 343 338 336 337 336 334 340 343 347 347 347 347 346 348
332 335 338 339 339 340 338 339 339 340 342 343 342 344 342 338 338 340 334 338 336 344 335 341 340 340 336 336 336 334 334 334 335 336 336 342 346 348 348 346 346 345 349
334 335 335 337 338 336 334 339 338 338 338 338 338 337 336 333 331 332 332 331 332 331 331 331 333 335 334 335 335 334 333 332 333 334 334 342 345 347 347 347 345 344 346
336 337 337 335 334 335 329 335 335 336 336 335 335 336 335 332 330 329 330 328 328 328 329 329 330 332 333 333 334 335 333 332 332 334 332 341 345 347 348 347 345 344 344
339 341 340 337 336 334 331 332 335 335 334 332 333 335 335 332 330 328 327 327 325 327 329 329 329 329 329 331 332 333 333 332 333 334 333 333 345 345 346 347 346 344 343
339 343 341 339 338 334 332 332 335 335 335 333 332 334 335 333 330 329 326 326 326 327 327 328 326 326 326 328 329 330 330 332 333 333 331 332 338 345 345 345 345 346 343
330 339 342 343 341 338 335 334 336 337 337 335 334 333 334 334 332 329 327 325 325 326 327 328 325 323 325 326 327 329 329 331 334 336 335 333 336 338 341 345 344 345 344
326 327 333 339 339 338 338 338 338 337 337 338 337 336 336 335 334 331 329 327 325 326 327 327 325 325 322 324 327 328 329 331 334 337 334 335 333 334 332 339 342 342 343
325 325 324 324 328 331 337 338 338 340 340 340 340 339 338 337 336 333 332 328 327 326 326 326 325 325 323 325 328 329 328 329 330 332 331 332 331 333 332 332 331 335 342
323 323 324 324 324 327 335 336 336 337 340 341 341 341 340 339 337 333 333 329 328 327 327 327 325 324 323 325 323 321 323 327 328 328 328 328 329 331 331 331 329 329 332
316 321 323 323 325 325 336 338 336 337 339 341 342 340 341 341 338 335 333 332 330 329 326 328 326 322 324 325 322 319 316 319 322 326 325 326 326 328 330 330 330 330 329
311 315 320 322 324 326 336 337 329 331 329 332 332 335 338 339 340 338 335 334 332 332 328 328 328 325 322 323 325 321 314 313 314 320 322 325 323 323 325 328 329 329 328
306 310 316 320 321 325 328 336 336 336 334 333 335 335 333 337 339 340 337 336 334 334 330 329 329 328 328 324 326 329 326 324 317 313 319 322 321 323 323 324 325 327 328
305 307 312 319 322 324 332 338 337 335 329 323 323 328 329 332 337 340 339 336 335 334 333 330 329 329 330 328 328 326 326 324 322 316 316 313 318 320 322 322 322 324 326
308 304 309 319 323 325 332 335 336 334 326 323 324 325 326 329 333 337 337 336 336 334 333 332 334 331 330 330 329 328 326 324 320 318 314 310 312 315 318 321 320 321 323
Wind_Speed
8 12 18 18 17 19 20 20 21 20 20 19 18 18 17 17 16 16 16 15 14 14 13 11 10 8 7 7 6 5 5 5 5 5 6 6 5 6 8 8 7 6 8
16 17 22 19 18 20 21 21 20 20 19 20 19 18 18 17 17 15 14 14 13 13 12 10 9 8 6 6 5 4 4 4 3 3 3 3 4 4 4 5 8 6 9
19 17 20 22 20 20 21 22 22 20 19 19 19 19 17 17 17 16 15 14 13 13 12 11 9 8 7 6 5 4 4 4 3 2 2 1 0 3 3 4 8 8 8
21 17 18 24 21 21 21 22 22 22 21 20 19 19 18 17 16 16 15 15 14 13 13 11 10 8 7 6 4 3 2 2 2 2 2 1 3 4 4 4 8 7 7
18 19 18 25 22 21 21 22 22 22 21 21 20 19 18 17 17 16 15 14 14 13 12 11 10 8 7 6 4 2 1 2 2 5 3 4 4 5 6 6 7 7 7
18 16 22 26 23 22 22 22 22 22 20 19 20 19 18 17 16 15 15 13 13 13 13 11 10 9 8 6 4 3 1 2 3 2 3 5 3 6 8 8 8 7 7
17 14 18 26 23 21 22 22 22 21 21 20 19 18 17 16 16 15 14 14 13 13 12 11 10 8 6 6 4 3 2 3 2 3 3 4 3 6 8 8 7 6 8
20 16 15 22 22 20 20 21 21 21 21 20 18 18 17 16 16 15 14 13 13 12 12 11 10 10 8 6 5 4 4 5 3 4 5 4 4 7 10 8 7 8 8
13 14 14 14 16 18 19 20 21 20 20 20 18 17 16 16 15 15 14 13 12 12 11 11 11 10 9 8 7 6 6 7 4 2 4 3 6 10 12 9 8 9 10
6 8 13 12 12 11 11 18 20 20 19 19 18 17 16 16 15 15 14 14 14 13 12 11 11 10 9 9 8 7 8 8 3 3 3 4 8 11 12 10 9 9 9
4 4 6 10 9 8 6 10 15 19 18 17 17 17 14 8 8 11 11 14 14 12 12 12 11 11 10 10 10 9 9 2 3 3 2 7 9 12 13 11 9 9 9
7 6 6 8 9 7 6 5 5 9 8 9 10 11 8 7 6 8 10 15 13 13 13 12 12 11 10 4 3 8 2 3 3 3 3 9 10 12 14 11 10 10 8
9 12 12 9 7 7 6 4 2 2 3 5 7 7 6 5 5 5 3 4 4 11 4 7 6 4 5 4 4 4 4 3 3 3 5 8 9 13 14 12 12 11 10
7 7 8 9 9 7 4 5 4 4 3 4 6 7 5 4 5 5 5 4 4 3 5 5 3 4 5 5 6 5 5 4 3 3 5 11 10 16 16 13 13 12 11
11 10 10 12 9 9 6 5 5 4 4 3 3 6 5 5 5 4 4 4 4 4 5 4 4 4 5 5 5 6 5 6 5 3 3 11 13 16 17 15 14 13 12
14 15 13 13 13 13 11 7 7 6 5 4 4 6 9 6 6 5 5 5 4 5 4 5 5 5 4 4 5 6 7 6 6 5 4 4 13 16 17 14 14 14 13
8 13 18 17 16 13 14 13 11 11 9 8 7 7 10 9 8 8 6 6 7 6 6 4 4 3 4 4 6 5 6 7 6 5 4 4 5 13 14 13 14 15 14
5 10 13 13 15 16 14 11 8 8 9 8 7 8 11 11 10 9 7 7 6 6 6 6 4 4 4 4 4 6 5 5 6 6 5 5 4 4 7 13 14 15 14
10 8 8 11 17 19 13 10 12 10 5 7 7 8 12 12 12 10 8 7 7 6 6 6 4 5 4 4 5 4 5 4 6 5 5 4 6 5 4 8 13 14 13
9 9 8 6 8 9 9 9 4 5 5 5 7 9 12 10 12 11 7 6 8 5 5 6 5 4 3 5 5 4 4 4 4 4 5 4 5 7 5 6 5 6 13
8 9 11 12 13 6 2 3 4 5 12 10 9 14 12 10 11 10 7 7 9 9 9 8 4 6 4 4 3 1 3 4 4 4 2 4 6 6 5 5 4 4 4
12 12 14 14 16 8 6 5 4 6 6 7 6 7 9 10 9 9 10 9 11 7 7 10 8 3 4 5 4 2 1 2 1 4 3 4 5 4 5 5 5 6 5
10 12 15 16 17 15 12 4 2 4 2 2 3 5 9 9 10 11 11 9 10 9 8 10 10 8 5 4 5 5 2 4 0 2 1 0 3 3 3 4 5 5 5
12 9 13 14 13 12 14 14 15 14 13 8 9 6 5 8 8 9 9 10 9 8 8 9 8 7 6 5 2 2 1 4 4 1 1 0 1 3 4 3 4 5 5
11 11 8 13 14 14 12 16 14 16 7 3 2 5 5 5 7 9 10 10 9 7 8 9 9 7 6 4 4 3 1 2 2 3 3 3 2 2 3 3 3 4 3
12 10 9 8 13 13 12 15 18 19 10 6 4 5 5 4 4 7 8 9 8 8 9 7 8 9 8 5 3 3 4 4 3 3 2 3 2 3 1 2 3 3 3
Wind_Direction
199 168 169 164 157 143 135 130 128 128 128 126 126 123 124 124 126 130 135 132 128 133 134 136 133 124 119 114 109 99 85 71 62 61 60 59 59 92 135 138 130 128 133
146 164 167 163 161 149 142 137 134 134 134 134 135 135 134 134 136 135 135 135 139 142 142 140 139 136 136 127 123 115 103 85 69 59 73 63 54 60 72 141 144 150 150
152 165 164 161 164 155 149 144 142 141 142 141 142 141 141 142 142 142 145 146 149 149 151 151 155 148 151 148 137 128 103 96 75 37 19 24 281 114 101 121 167 162 161
154 165 163 160 165 161 156 150 148 149 150 148 148 148 150 149 149 151 154 155 156 160 159 158 158 159 159 152 146 124 109 82 58 30 38 337 283 182 137 129 149 167 174
161 164 168 158 165 163 161 156 153 154 155 155 155 155 157 156 158 159 162 165 165 166 165 163 164 166 165 166 165 155 105 25 11 21 349 318 229 227 171 161 162 170 180
162 169 168 155 165 166 168 161 160 159 159 160 160 161 162 164 164 165 168 171 173 174 170 171 166 174 174 176 180 185 255 339 17 10 339 336 177 219 193 179 177 172 176
162 168 167 155 164 169 172 166 164 163 164 166 167 165 168 170 170 172 174 176 180 179 176 176 171 175 179 188 198 225 276 305 358 324 330 335 221 211 217 196 186 174 182
162 163 164 157 162 171 177 172 167 169 169 168 173 171 172 176 178 178 180 183 186 185 183 183 181 181 182 191 213 245 282 303 351 342 324 326 282 216 223 218 196 194 193
159 158 157 154 163 176 180 176 170 174 175 171 173 175 175 180 184 185 184 187 189 192 190 191 190 191 185 197 214 228 255 283 304 305 309 306 281 217 220 221 217 214 207
142 167 153 152 162 174 184 186 174 174 178 174 175 177 179 184 188 194 190 191 193 194 196 196 197 196 194 203 213 226 247 264 293 289 273 278 275 219 221 224 229 228 221
122 154 147 156 161 161 178 189 184 176 179 178 179 181 180 180 189 202 200 199 195 197 203 201 200 202 201 211 221 233 247 223 247 251 254 265 262 228 223 222 230 236 223
183 179 166 174 163 143 181 194 188 179 181 185 185 185 183 171 175 192 205 206 204 200 205 208 204 207 210 190 226 241 232 238 244 254 245 265 274 228 221 220 230 242 229
200 177 182 167 145 161 188 158 185 215 178 187 184 185 179 169 175 194 201 206 195 207 204 208 208 196 192 181 202 229 243 245 235 240 258 270 257 227 219 220 226 230 227
162 245 179 169 155 169 174 174 173 186 188 212 191 177 174 174 181 187 196 195 190 184 192 197 189 194 196 194 196 222 240 232 239 232 248 262 258 224 222 219 225 227 223
166 186 201 163 170 181 183 176 175 190 198 212 194 180 184 177 192 186 204 185 191 171 188 198 187 200 206 198 202 211 234 245 242 234 236 259 254 217 216 218 219 224 225
175 178 191 193 182 173 191 186 189 185 189 186 191 214 199 183 185 186 197 203 199 188 192 195 191 203 213 188 213 209 226 240 244 231 240 251 247 214 219 224 211 217 220
204 181 187 194 179 181 195 203 207 194 180 189 191 197 213 197 190 192 195 204 207 189 181 187 200 183 184 200 222 211 222 232 243 235 240 251 261 224 217 223 212 212 215
153 192 187 189 194 192 197 199 200 210 179 190 186 190 211 203 195 192 198 209 191 181 179 189 181 179 200 193 217 226 224 222 228 226 217 210 201 236 237 231 220 217 217
188 179 204 203 199 192 189 201 218 165 196 190 182 200 207 200 197 200 200 199 179 182 187 187 186 181 180 198 218 229 228 224 220 233 218 190 223 235 221 243 229 229 224
202 201 202 211 243 264 193 185 209 204 135 222 211 216 208 198 194 198 197 176 182 185 178 184 186 180 174 201 213 230 234 232 223 214 205 183 213 230 211 218 243 237 227
247 215 209 205 229 204 224 196 209 209 211 198 207 213 203 187 193 193 190 184 186 196 194 187 168 177 201 163 111 292 272 250 245 238 204 216 224 230 210 211 210 223 240
237 229 223 218 223 211 191 220 242 207 247 219 212 200 199 188 190 183 192 196 194 193 172 178 177 158 182 176 157 112 250 331 279 230 202 233 235 231 224 212 211 220 220
228 232 233 229 221 209 196 171 80 37 78 132 191 198 202 185 188 190 196 191 192 190 190 185 183 169 164 195 191 150 116 212 293 307 31 238 202 216 246 225 222 233 226
280 232 229 230 226 228 212 208 204 217 220 219 228 215 188 200 202 192 193 195 194 192 182 186 174 179 163 171 199 225 304 140 171 320 328 324 226 217 226 240 234 236 227
295 282 232 232 235 217 203 209 204 215 218 145 120 169 188 205 212 210 202 198 189 189 186 171 164 167 185 157 156 149 162 73 86 131 242 302 324 266 254 260 265 249 229
310 300 287 226 224 223 197 208 208 212 187 156 149 191 203 199 196 194 187 186 185 181 181 171 175 177 186 154 158 179 167 156 183 156 139 236 212 277 281 263 255 230 214